Welcome to the New NWS' Forecast!
Most changes are behind the scenes, but click here for differences you might notice.
Latest weather observations around

Windsor Locks, Bradley International Airport (KBDL)

Using English Units (Switch to International System of Units)
Date/ Time (EDT) Wind (mph) Vis. (mi) Weather Sky Cond. Temp (°F) Rel. Humidity Wind Chill (°F) Heat Index (°F) Pressure Precip. (in)
Air Dwpt 6 hour Altimeter (inHg) Sea level (inHg) 1 hr 3 hr 6 hr
Max Min
Jul 19 08:51 7 10 Mostly Clear FEW250 67 52     59%     30.11 30.11      
Jul 19 07:51 N 6 10 Clear CLR 63 52     67%     30.1 30.09      
Jul 19 06:51 N 3 10 Clear CLR 59 52     78%     30.09 30.09      
Jul 19 05:51 N 6 10 Clear CLR 55 51     86%     30.08 30.07      
Jul 19 04:51 N 6 10 Clear CLR 55 51     86%     30.06 30.05      
Jul 19 03:51 NNE 5 10 Clear CLR 57 53     87%     30.04 30.04      
Jul 19 02:51 N 5 10 Clear CLR 58 53     84%     30.03 30.03      
Jul 19 01:51 NNE 5 10 Clear CLR 59 54     83%     30.02 30.01      
Jul 19 00:51 NNE 6 10 Clear CLR 60 54     80%     30 30      
Jul 18 23:51 Calm 10 Clear CLR 62 55     78%     29.99 29.98      
Jul 18 22:51 NW 5 10 Clear CLR 63 53     70%     29.98 29.97      
Jul 18 21:51 NW 5 10 Clear CLR 65 54     68%     29.96 29.96      
Jul 18 20:51 NE 6 10 Mostly Clear FEW055 FEW080 FEW250 69 52     54%     29.94 29.94      
Jul 18 19:51 NNW 6 10 Mostly Clear FEW060 FEW220 FEW250 75 51     43%   74 29.92 29.92      
Jul 18 18:51 N 8 10 Mostly Clear FEW060 FEW220 FEW250 78 49     36%   77 29.91 29.9      
Jul 18 17:51 N 11 10 Mostly Clear FEW065 FEW220 FEW250 80 50     35%   79 29.9 29.89      
Jul 18 16:51 NNW 10 10 Mostly Clear FEW065 FEW250 81 52     37%   80 29.89 29.88      
Jul 18 15:51 NNW 11 10 Mostly Clear FEW065 82 52     35%   81 29.88 29.88      
Jul 18 14:51 N 13 10 Mostly Clear FEW065 FEW250 82 54     38%   81 29.88 29.88      
Jul 18 13:51 NNW 13 10 Partly Cloudy SCT055 SCT250 83 54     37%   82 29.88 29.88      
Jul 18 12:51 N 9 10 Partly Cloudy SCT050 SCT250 80 59     49%   81 29.88 29.88      
Jul 18 11:51 NNE 11 10 Mostly Clear FEW045 FEW250 79 61     54%   79 29.89 29.88      
Jul 18 10:51 N 8 10 Mostly Clear FEW040 FEW250 77 61     58%   77 29.9 29.89      
Jul 18 09:51 NNE 13 10 Mostly Clear FEW035 FEW080 FEW250 75 62     64%   75 29.89 29.89      
Jul 18 08:51 N 10 10 Partly Cloudy FEW025 SCT070 SCT250 73 63     71%   73 29.9 29.89      
Jul 18 07:51 N 10 10 Clear   70 65     84%     29.88 29.88      
Jul 18 06:51 N 8 10 Mostly Clear FEW005 FEW075 FEW250 68 64     87%     29.86 29.85      
Jul 18 05:51 NNW 6 10 Mostly Cloudy SCT055 BKN100 BKN250 66 63     90%     29.84 29.84      
Jul 18 04:51 N 6 10 Mostly Cloudy SCT055 SCT090 BKN110 67 64     90%     29.82 29.82      
Jul 18 03:51 N 6 10 Mostly Cloudy BKN095 BKN220 68 65     90%     29.8 29.8      
Jul 18 02:51 N 5 10 Mostly Cloudy SCT100 BKN190 BKN250 69 66     90%     29.78 29.78      
Jul 18 01:51 NW 5 10 Cloudy FEW080 SCT095 SCT120 OVC160 71 67     87%   72 29.78 29.78 0   0
Jul 18 00:51 S 5 10 Light Rain FEW004 SCT075 BKN110 OVC160 71 69     93%   72 29.79 29.79 0    
Jul 17 23:51 W 5 10 Cloudy FEW006 FEW075 BKN200 OVC250 71 70     96%   72 29.8 29.79      
Jul 17 23:08 S 3 10 Mostly Cloudy FEW004 SCT010 SCT075 BKN210 71 70     96%   72 29.8        
Jul 17 22:51 SSW 7 10 Mostly Cloudy FEW004 BKN010 BKN075 71 70     96%   72 29.81 29.8      
Jul 17 21:51 S 7 10 Cloudy SCT004 BKN012 OVC035 71 70     96%   72 29.81 29.81      
Jul 17 21:38 SSW 7 10 Cloudy SCT004 BKN012 OVC045 71 70     96%   72 29.82        
Jul 17 21:18 S 8 10 Cloudy FEW002 BKN045 OVC110 71 70     96%   72 29.81        
Jul 17 20:51 S 7 10 Cloudy BKN005 BKN050 OVC095 71 70     96%   72 29.81 29.8      
Jul 17 20:15 SSW 6 10 Cloudy SCT005 OVC038 71 70     96%   72 29.81        
Jul 17 19:51 SW 6 10 Cloudy FEW006 BKN012 OVC040 71 70     96%   72 29.81 29.81 0   2
Jul 17 19:28 S 9 7 Light Rain SCT006 BKN012 OVC040 71 70     96%   72 29.81   0    
Jul 17 19:12 S 9 3 Rain and Fog/Mist SCT006 BKN015 OVC045 71 70     96%   72 29.8   0    
Jul 17 19:10 S 9 3 Rain and Fog/Mist BKN006 BKN015 OVC045 71 70     96%   72 29.8   0    
Jul 17 19:00 S 9 1.5 Heavy Rain and Fog/Mist BKN006 BKN021 OVC045 71 70     96%   72 29.8   0    
Jul 17 18:51 S 8 2.5 Rain and Fog/Mist BKN005 BKN014 OVC045 71 70     96%   72 29.8 29.79 0    
Jul 17 18:49 S 8 2.5 Rain and Fog/Mist BKN005 BKN014 OVC045 72 70     94%   73 29.8   0    
Jul 17 17:51 S 7 10 Light Rain BKN005 BKN008 OVC040 71 70     96%   72 29.8 29.79 0    
Jul 17 17:45 SSE 8 10 Light Rain BKN005 BKN040 OVC110 72 70     94%   73 29.79   0    
Jul 17 17:19 S 5 6 Thunderstorms and Rain and Fog/Mist BKN007 BKN040 OVC110 71 70     96%   72 29.79   0    
Jul 17 16:51 SSE 9 4 Thunderstorms and Rain and Fog/Mist SCT007 BKN011 OVC030 72 71     97%   73 29.79 29.78 0 2  
Jul 17 16:43 SSE 7 4 Thunderstorms and Rain and Fog/Mist SCT007 OVC013 72 71     97%   73 29.79   0    
Jul 17 16:36 S 6 5 Rain and Fog/Mist FEW009 OVC013 72 70     93%   73 29.8   0    
Jul 17 16:25 S 6 7 Thunderstorms and Rain FEW009 BKN013 OVC035 72 71     97%   73 29.79   0    
Jul 17 16:12 SE 8 7 Thunderstorms and Rain FEW007 SCT015 OVC045 72 70     93%   73 29.77   0    
Jul 17 15:51 SSE 6 6 Thunderstorms and Rain and Fog/Mist FEW007 BKN015 OVC035 71 71     100%   73 29.78 29.78 1    
Jul 17 15:47 SSE 6 6 Thunderstorms and Rain and Fog/Mist FEW007 BKN015 OVC025 72 72     100%   73 29.78   1    
Jul 17 15:41 SE 6 3 Thunderstorms and Rain and Fog/Mist SCT007 BKN011 OVC020 71 71     100%   73 29.78   1    
Jul 17 15:34 ENE 7 2 Thunderstorms and Rain and Fog/Mist FEW007 BKN015 OVC030 71 71     100%   73 29.78   1    
Jul 17 15:25 E 3 1 Thunderstorms and Heavy Rain and Fog/Mist FEW005 BKN020 OVC040 72 71     97%   73 29.78   1    
Jul 17 15:16 Calm 0.5 Thunderstorms and Heavy Rain and Fog SCT005 BKN011 OVC020 71 71     100%   73 29.78   0    
Jul 17 15:09   0.5 Thunderstorms and Heavy Rain and Fog SCT005 BKN018 OVC024 72 71     97%   73 29.79   0    
Jul 17 15:06   1.5 Heavy Rain and Fog/Mist FEW005 BKN018 OVC024 72 71     97%   73 29.8   0    
Jul 17 14:58   4 Rain and Fog/Mist SCT011 OVC021 72 71     97%   73 29.76   0    
Jul 17 14:51   4 Thunderstorms and Rain and Fog/Mist FEW005 BKN018 OVC028 72 71     97%   73 29.75 29.75 1    
Jul 17 14:46   4 Thunderstorms and Rain and Fog/Mist FEW007 BKN020 OVC045 72 72     100%   73 29.76   1    
Jul 17 14:39 NW 8 1.5 Thunderstorms and Heavy Rain and Fog/Mist FEW005 BKN018 OVC032 72 70     93%   73 29.76   1    
Jul 17 14:33   0.25 Thunderstorms and Heavy Rain and Fog FEW009 BKN020 OVC040 73 71     94%   74 29.78   0    
Jul 17 14:29   0.5 Thunderstorms and Heavy Rain and Fog SCT020 BKN030 OVC060 74 71     91%   75 29.8   0    
Jul 17 14:25 5 2.5 Thunderstorms and Rain and Fog/Mist FEW035 BKN050 OVC100 76 72     88%   77 29.78   0    
Jul 17 13:51   6 Thunderstorms and Rain FEW037 BKN055 BKN100 OVC200 83 73     72%   89 29.76 29.75 0   0
Jul 17 13:42   10 Thunderstorms SCT037 BKN060 BKN120 BKN200 87 73     63%   95 29.75        
Jul 17 12:51 S 13 10 Mostly Cloudy SCT036 BKN045 BKN200 89 74     61%   98 29.76 29.75      
Jul 17 11:51 S 10 10 Mostly Cloudy BKN032 BKN045 BKN120 88 74     63%   97 29.8 29.8      
Jul 17 10:51 S 16 10 Mostly Cloudy SCT025 BKN030 BKN130 BKN200 87 74     65%   95 29.81 29.81      
Jul 17 10:13 S 15 10 Mostly Cloudy SCT025 BKN250 85 73     68%   92 29.82        
Jul 17 09:51 S 14 10 Mostly Cloudy BKN022 BKN250 85 73     68%   92 29.82 29.81      
Jul 17 09:32 S 11 10 Mostly Cloudy BKN022 BKN250 84 73     70%   90 29.82        
Jul 17 08:51 SSW 10 10 Mostly Cloudy SCT020 SCT200 BKN250 81 73     77%   86 29.84 29.83      
Jul 17 07:51 S 9 9 Partly Cloudy FEW012 FEW200 SCT250 78 72     82%   79 29.85 29.85      
Jul 17 06:51 S 8 8 Partly Cloudy FEW220 SCT250 75 71     88%   76 29.85 29.85      
Jul 17 05:51 S 9 7 Mostly Cloudy BKN250 73 71     94%   74 29.86 29.86      
Jul 17 04:51 S 7 9 Clear   73 71     94%   74 29.86 29.86      
Jul 17 03:51 S 8 10 Partly Cloudy SCT250 73 71     94%   74 29.87 29.86      
Jul 17 02:51 S 7 10 Mostly Clear FEW250 74 71     91%   75 29.88 29.87      
Jul 17 01:51 S 7 10 Partly Cloudy SCT250 75 71     88%   76 29.89 29.89      
Jul 17 00:51 S 8 10 Partly Cloudy SCT250 75 70     84%   76 29.91 29.9      
Jul 16 23:51 SSE 8 10 Partly Cloudy SCT250 76 71     85%   77 29.91 29.91      
Jul 16 22:51 SSE 8 10 Clear CLR 78 71     79%   79 29.91 29.91      
Jul 16 21:51 S 9 10 Mostly Clear FEW120 FEW190 80 72     76%   84 29.92 29.92      
Jul 16 20:51 S 9 10 Mostly Clear FEW110 FEW210 82 72     72%   87 29.9 29.89      
Jul 16 19:51 S 14 10 Mostly Cloudy FEW090 BKN110 BKN200 BKN250 85 72     65%   91 29.89 29.88     0
Jul 16 18:51 S 11 10 Partly Cloudy FEW050 FEW090 SCT200 SCT250 86 72     63%   92 29.89 29.89      
Jul 16 17:51 SSE 11 10 Mostly Cloudy BKN050 BKN070 BKN220 BKN250 87 70     57%   92 29.89 29.89 0    
Jul 16 16:51 SSE 13 9 Light Rain SCT050 BKN070 BKN095 BKN220 83 72     70%   88 29.91 29.9 0 0  
Jul 16 15:51 ESE 7 10 Mostly Cloudy FEW010 SCT050 SCT100 BKN250 91 72     54%   99 29.91 29.9 0    
Notice The following observation data may not be complete
Jul 16 14:55   6 Light Rain FEW007 SCT050 BKN090 BKN250   73      %     29.93   0    
Notice The following observation data may not be complete
Jul 16 14:51   5 Rain BKN050 BKN090 BKN250   74      %     29.93 29.92 0    
Jul 16 13:51 S 7 10 Mostly Cloudy FEW045 BKN085 BKN250 90 67     47%   93 29.94 29.93      
Jul 16 12:51 S 5 10 Mostly Cloudy FEW040 SCT065 BKN250 92 69     47%   97 29.95 29.95      
Jul 16 11:51 S 8 10 Partly Cloudy FEW032 SCT250 89 72     57%   96 29.96 29.96      
Jul 16 10:51 5 10 Partly Cloudy FEW035 SCT220 86 72     63%   92 29.97 29.97      
Jul 16 09:51 N 3 10 Mostly Clear FEW220 83 71     67%   88 29.99 29.98      
May 15 09:43 S 10 2 Haze OVC005 65 60     84%     29.86        
May 14 11:51 7 10 Mostly Cloudy BKN022 62 52     70%     30 30      
May 13 20:00 SSW 8 10 Cloudy BKN014 OVC100 54 49     83%     30.1        
May 13 17:51 SW 9 10 Mostly Cloudy FEW025 SCT110 BKN130 57 48     72%     30.1 30.1      
Jun 10 10:51 SSW 9 10 Mostly Cloudy FEW070 SCT095 BKN250 80 53     39%   80 29.97 29.97      
Jun 07 15:51 6 10 Mostly Clear FEW060 FEW080 74 45     36%   73 29.95 29.94      
Jun 07 09:51 N 10 10 Mostly Cloudy FEW020 BKN055 58 49     72%     29.99 29.99